Location: Chenango Forks
(42.2242°N, 75.8278°W)
Time: 05:23:39
(UTC-04:00)

Daily predictions for brighter satellites

Satellite Brightness Start Highest point End
(mag) Time Altitude Azimuth Time Altitude Azimuth Time Altitude Azimuth
ATLAS 3B R/B 4.4 01:26:04 28° N 01:26:04 28° N 01:29:40 10° NNE
Cosmos 1980 Rocket 4.2 02:48:30 23° NNE 02:48:30 23° NNE 02:50:34 10° NNE
CENTAUR R/B 3.7 02:56:30 39° NE 02:56:30 39° NE 03:00:41 10° NE
Cosmos 2263 Rocket 4.3 02:54:20 10° N 02:56:25 21° N 02:56:25 21° N
SL-16 R/B 3.6 03:33:25 37° NNW 03:33:25 37° NNW 03:37:00 10° NNW
ARIANE 5 R/B 4.0 03:31:13 10° NNE 03:34:01 33° NNE 03:34:01 33° NNE
Cosmos 2322 Rocket 3.0 03:58:57 42° N 03:58:57 42° N 04:02:52 10° NNE
SL-16 R/B 3.0 04:04:10 43° NNW 04:04:10 43° NNW 04:08:19 10° NNE
Cosmos 1777 Rocket 4.5 04:02:28 10° NNW 04:06:50 56° NNE 04:06:50 56° NNE
Resurs 1-4 Rocket 3.1 04:04:50 10° N 04:08:12 37° NNW 04:08:12 37° NNW
Cosmos 2219 Rocket 4.5 04:06:56 10° SE 04:10:36 18° E 04:14:17 10° ENE
COSMOS 2428 4.0 04:09:53 28° SE 04:11:41 34° ESE 04:16:44 10° NE
CZ-2D R/B 3.0 04:06:58 10° N 04:10:48 41° NNW 04:10:48 41° NNW
Okean O Rocket 3.3 04:11:28 10° NE 04:15:21 29° E 04:16:33 25° SE
Cosmos 1844 Rocket 4.2 04:11:46 10° N 04:16:51 34° ENE 04:21:52 10° ESE
DELTA 2 R/B (1) 4.2 04:21:58 44° SE 04:21:58 44° SE 04:26:39 10° E
FALCON 9 R/B 4.4 04:17:39 43° WSW 04:22:38 59° S 05:06:43 10° ESE
Lacrosse 4 Rocket 3.9 04:26:46 13° SE 04:26:46 13° SE 04:27:19 10° SE
Cosmos 2184 Rocket 3.9 04:18:51 10° N 04:25:06 84° E 04:28:01 34° SSE
Cosmos 1455 Rocket 3.5 04:22:56 10° N 04:26:43 58° NE 04:26:43 58° NE
Cosmos 2360 Rocket 2.0 04:27:51 80° W 04:27:59 81° WNW 04:33:40 10° NNE
Gblst 52 Del rocket 4.3 04:27:41 44° NW 04:29:33 74° NNE 04:35:45 10° ESE
Cosmos 1980 Rocket 4.2 04:30:15 14° NW 04:30:15 14° NW 04:32:53 10° NNW
ADEOS II 3.2 04:28:59 10° NNE 04:33:57 41° E 04:37:45 16° SSE
ADEOS Rocket 3.3 04:32:33 10° N 04:37:11 41° NW 04:37:11 41° NW
Cosmos 1812 4.4 04:40:01 25° NNW 04:40:01 25° NNW 04:41:47 10° N
Cosmos 1340 3.4 04:44:18 48° N 04:44:18 48° N 04:47:08 10° N
ATLAS 5 CENTAUR R/B 4.0 04:39:56 10° NNW 04:45:17 34° NE 04:51:03 10° ESE
CENTAUR R/B 3.9 04:43:40 23° NW 04:45:25 26° NNW 04:51:12 10° NNE
USA 215 3.3 04:41:40 10° SE 04:48:15 82° NE 04:54:49 10° NW
SL-08 ROCKET BODY 4.4 04:43:28 10° NNW 04:49:07 51° W 04:49:22 51° W
Cosmos 2208 Rocket 4.2 04:48:51 36° S 04:51:08 73° ESE 04:56:35 10° NNE
Cosmos 1536 Rocket 3.4 04:53:01 64° SSW 04:53:41 85° W 04:58:12 10° N
USA 229 DEB 4.5 04:50:45 17° S 04:55:48 47° ESE 05:02:22 10° NE
USA 229 4.5 04:50:50 17° S 04:55:54 47° ESE 05:02:28 10° NE
PAYLOAD B 4.4 04:50:28 10° NNE 04:56:05 71° ESE 05:00:22 18° S
Cosmos 2154 Rocket 4.0 04:52:50 10° N 04:59:04 82° E 05:05:17 10° S
Cosmos 2333 Rocket 3.5 04:54:10 10° S 04:59:22 37° ESE 05:04:36 10° NE
Cosmos 1743 3.0 04:57:00 10° N 05:00:52 64° E 05:04:39 10° SSE
PSLV R/B 3.7 05:01:43 10° NNE 05:06:04 71° ESE 05:08:52 22° S
Cosmos 2322 4.0 05:04:46 40° W 05:06:07 48° WNW 05:11:40 10° NNE
CZ-4B R/B 2.4 05:04:01 10° N 05:07:39 77° WNW 05:08:01 67° SW
MTI 3.8 05:06:50 45° SSE 05:07:45 81° ENE 05:11:04 10° N
Okean 1-7 Rocket 4.4 05:09:37 10° S 05:14:00 52° E 05:18:23 10° NNE
ARIANE 5 R/B 4.4 05:12:08 10° NNW 05:14:22 14° NW 05:14:22 14° NW
EO 1 Del DPAF 3.1 05:13:26 11° S 05:17:02 69° WSW 05:20:54 10° NNW
Nadezhda 1 Rocket 4.1 05:16:39 27° SW 05:19:42 50° WNW 05:25:36 10° N
Cosmos 2181 Rocket 4.2 05:14:44 10° S 05:20:54 74° E 05:27:12 10° NNE
Meteor PRIRODA 4.2 05:21:14 10° NNE 05:24:59 61° E 05:28:42 10° S
Cosmos 2333 4.2 05:21:51 24° SW 05:25:19 70° WNW 05:31:02 10° NNE
Cosmos 1844 3.7 05:19:34 10° NNW 05:25:23 88° ENE 05:31:05 10° SSE
Cosmos 1570 Rocket 4.2 05:24:16 29° SW 05:26:37 50° WNW 05:31:43 10° N
Cosmos 468 Rocket 4.3 05:22:55 10° S 05:28:02 66° ESE 05:33:13 10° NNE
Cosmos 1898 Rocket 3.7 05:23:15 10° NNW 05:28:28 74° ENE 05:33:38 10° SSE
Meteor 1-13 Rocket 4.1 05:23:37 12° SSW 05:28:41 71° W 05:34:18 10° N
CZ-4B DEB 4.2 05:26:56 10° N 05:32:28 64° WNW 05:37:41 11° SSW
MOS 1 Rocket 4.2 05:28:37 10° N 05:32:36 28° WNW 05:33:35 25° W
CZ-4B R/B 3.3 05:27:27 10° N 05:33:02 63° WNW 05:38:17 11° SSW
BREEZE M DEB (TANK) 3.7 05:20:24 10° WNW 05:33:03 72° NNE 05:36:51 10° ESE
Tiangong 2 1.6 05:34:35 36° SW 05:34:53 37° SSW 05:37:48 10° SE
Cosmos 2341 Rocket 3.9 05:33:35 10° NNW 05:39:47 66° W 05:45:54 10° S
IRS-1C Rocket 4.4 05:36:56 10° N 05:41:58 47° WNW 05:46:22 13° SW
Cosmos 1238 Rocket 2.8 05:42:00 31° W 05:42:16 32° WNW 05:45:00 10° NNW
Cosmos 2322 Rocket 4.3 05:41:31 10° NW 05:42:40 11° NW 05:43:50 10° NNW
ERS-2 2.1 05:40:03 10° NNE 05:43:47 87° E 05:47:28 10° SSW
Cosmos 1980 3.9 05:39:21 10° SSW 05:44:57 72° ESE 05:50:35 10° NNE
Cosmos 2218 Rocket 4.3 05:39:38 10° N 05:46:03 73° E 05:52:21 10° SSE
IRAS Rocket 4.4 05:40:51 10° N 05:46:14 55° WNW 05:51:39 10° SW
SL-16 R/B 4.3 05:47:39 10° NW 05:48:14 10° NW 05:48:50 10° NW
Cosmos 858 Rocket 4.4 05:45:26 10° NNW 05:50:44 81° WSW 05:55:58 10° SSE
Okean O Rocket 2.7 05:47:53 10° N 05:51:38 27° WNW 05:54:01 17° WSW
CZ-2C R/B 4.2 05:47:38 10° SSW 05:51:52 36° W 05:56:04 10° NNW
SL-8 R/B 4.0 05:48:56 10° WNW 05:53:42 66° NNE 05:58:27 10° ESE
Cosmos 2219 Rocket 2.2 05:48:29 10° SW 05:53:58 63° WNW 05:59:33 10° NNE
Cosmos 1763 Rocket 4.0 05:50:34 10° S 05:55:33 60° ESE 06:00:36 10° NNE
COSMOS 2428 3.4 05:51:56 16° WSW 05:55:52 37° WNW 06:01:08 10° N
COSMO-SKYMED 1 3.7 05:51:54 10° SSE 05:56:04 49° ENE 06:00:16 10° N
Cosmos 1937 Rocket 3.5 05:52:24 10° NNW 05:57:45 85° WSW 06:03:02 10° SSE
Meteor 2-9 Rocket 4.2 05:52:42 10° NNW 05:58:20 65° W 06:03:46 10° S
Cosmos 1025 Rocket 3.0 05:54:21 10° SSW 05:58:40 63° W 06:03:04 10° N
Cosmos 1726 Rocket 3.8 05:55:01 10° N 05:59:29 74° E 06:03:56 10° SSE
Cosmos 1844 Rocket 3.2 05:55:40 10° NW 06:00:42 35° WSW 06:05:42 10° S
NOSS 0 Rocket 3.9 05:55:05 10° SSW 06:01:16 81° WNW 06:07:28 10° NNE
Lacrosse 4 Rocket 3.5 06:03:25 10° SW 06:03:25 10° SW 06:03:26 10° SW
GENESIS II 4.3 05:57:45 10° SSW 06:01:49 88° ESE 06:05:55 10° NE
Meteor 1-23 Rocket 4.2 05:56:06 10° SSW 06:01:54 73° W 06:07:40 10° N
Cosmos 1437 2.7 06:00:20 10° SSW 06:03:36 79° W 06:06:54 10° N
Okean-O 2.6 06:01:08 10° N 06:05:34 68° WNW 06:09:58 10° SSW
SJ-6F 4.4 06:02:28 10° NNE 06:06:34 86° WNW 06:10:38 10° SSW
DELTA 2 R/B (1) 3.7 06:02:43 14° W 06:07:32 68° S 06:13:02 10° E
Meteor 1-28 Rocket 4.3 06:05:24 10° SSE 06:09:05 51° ENE 06:12:48 10° N
Cosmos 1892 Rocket 3.6 06:05:01 10° S 06:09:20 84° E 06:13:44 10° N
Cosmos 841 Rocket 3.9 06:04:22 10° S 06:09:27 66° ESE 06:14:33 10° NNE
NOAA 6 4.1 06:06:01 10° NNE 06:11:10 84° ESE 06:16:17 10° SSW
USA 116 4.4 06:08:20 10° S 06:12:22 43° W 06:16:55 10° NNW
Cosmos 2360 Rocket 4.0 06:09:51 10° WNW 06:12:56 15° NW 06:16:01 10° NNW
EXPRESS MD2 4.0 06:08:42 10° SW 06:13:12 41° SSE 06:15:49 10° ENE
Cosmos 2285 Rocket 4.2 06:07:04 10° SW 06:13:24 59° WNW 06:19:46 10° NNE
ADEOS II 3.1 06:09:08 10° N 06:13:27 26° WNW 06:17:45 10° WSW
CZ-4C R/B 4.2 06:08:35 10° NNW 06:15:10 41° NE 06:22:25 10° ESE
Cosmos 2278 Rocket 2.2 06:10:51 10° NNW 06:16:28 64° WSW 06:22:03 10° S
Cosmos 2298 Rocket 4.3 06:11:58 10° NNW 06:17:04 47° WSW 06:22:08 10° S
Cosmos 1814 Rocket 4.1 06:15:07 10° SSW 06:20:15 58° WNW 06:25:20 10° NNE
Cosmos 1959 Rocket 4.5 06:14:38 10° NNW 06:20:39 61° W 06:26:40 10° S
Cosmos 2237 Rocket 2.3 06:16:16 10° SW 06:21:53 64° WNW 06:27:34 10° NNE
Cosmos 1441 Rocket 3.4 06:18:48 10° S 06:22:45 86° E 06:26:47 10° N
Aureole 2 Rocket 3.0 06:21:54 10° SW 06:25:19 39° WNW 06:28:29 10° N
Meteor 1-15 Rocket 4.5 06:20:46 10° NNW 06:26:30 53° W 06:32:12 10° SSW
Cosmos 1515 3.7 06:23:44 10° SSW 06:27:35 76° W 06:31:27 10° N
Meteor 2-4 Rocket 4.3 06:23:02 10° SW 06:28:04 34° WNW 06:33:01 10° N
Cosmos 1666 4.2 06:26:16 10° NW 06:28:51 17° W 06:31:27 10° SW
Cosmos 405 Rocket 3.4 06:25:18 10° SW 06:29:03 36° WNW 06:32:47 10° N
Cosmos 371 Rocket 3.3 06:24:25 10° SSW 06:29:16 87° WNW 06:34:11 10° NNE
ATLAS 5 CENTAUR R/B 2.6 06:24:23 10° NW 06:30:17 54° WSW 06:36:37 10° SSE
USA 215 4.1 06:26:12 10° S 06:31:40 28° SW 06:37:08 10° WNW
Cosmos 2297 4.0 06:25:53 10° NNW 06:31:41 79° ENE 06:37:24 10° SSE
